Location: Cavola
(44.4000°N, 10.5333°E)
Time: 17:02:55
(UTC+00:00)

Daily predictions for brighter satellites

Satellite Brightness Start Highest point End
(mag) Time Altitude Azimuth Time Altitude Azimuth Time Altitude Azimuth
Cosmos 1378 Rocket 3.6 19:39:17 10° S 19:43:43 89° E 19:48:10 10° N
Cosmos 1674 4.2 19:40:10 10° SSW 19:43:45 40° WNW 19:47:22 10° N
Iridium 4 Rocket 4.2 19:38:32 10° N 19:44:23 70° W 19:50:13 10° S
Cosmos 1437 Rocket 3.5 19:42:19 10° NNW 19:46:10 56° W 19:50:04 10° S
ERBS 2.0 19:43:10 10° NW 19:46:11 88° SW 19:49:12 10° SE
SPOT 3 Rocket 4.2 19:42:47 10° SE 19:47:36 42° ENE 19:52:29 10° N
PSLV R/B 3.9 19:43:34 10° NNE 19:47:42 82° ESE 19:51:50 10° SSW
MOS 1 4.4 19:42:02 10° SSE 19:47:43 89° WSW 19:53:28 10° NNW
Cosmos 1674 Rocket 3.8 19:44:35 10° SSW 19:48:55 77° W 19:53:17 10° N
ATLAS 2AS CENTAUR R/B 4.2 19:43:14 10° NNW 19:49:22 28° NNE 19:55:09 10° E
Meteor 1-16 Rocket 4.3 19:43:53 10° NNW 19:49:29 82° W 19:54:52 10° S
Cosmos 2251 Rocket 3.8 19:44:52 10° NNW 19:50:10 62° ENE 19:55:28 10° SSE
Lacrosse 5 rocket 3.5 19:47:53 10° NNW 19:50:37 18° NNE 19:53:27 10° ENE
Cosmos 1656 Rocket 3.7 19:50:01 10° NNW 19:55:30 81° WSW 20:01:01 10° SSE
NOSS 3-4 (A) 4.0 19:48:45 10° NW 19:55:43 72° NE 20:03:36 10° SE
Cosmos 1238 Rocket 3.9 19:50:35 10° NNW 19:55:47 76° W 20:01:49 10° S
NOSS 3-4 (C) 4.0 19:48:51 10° NW 19:55:49 71° NE 20:03:38 10° SE
CZ-4B R/B 0.9 19:53:18 10° NNE 19:56:12 77° ESE 19:59:04 10° S
Cosmos 1553 Rocket 4.2 19:50:18 10° S 19:56:38 84° W 20:03:06 10° N
USA 306 4.2 19:54:34 10° WNW 19:58:10 29° SW 20:01:44 10° SSE
Cosmos 614 Rocket 4.4 19:55:30 10° NNW 20:00:41 63° WSW 20:05:49 10° S
USA 234 4.4 19:54:46 10° E 20:00:42 38° NNE 20:06:39 10° NW
Atlas Centaur 2 3.3 20:04:22 10° SSW 20:05:59 12° S 20:07:30 10° SSE
Meteor 2-10 Rocket 3.5 20:03:16 10° N 20:08:21 69° ENE 20:13:19 10° SSE
Okean 1 Rocket 3.3 20:04:27 10° NNW 20:08:56 72° W 20:13:22 10° S
APEX 4.2 20:03:14 10° SSW 20:09:20 86° WNW 20:14:27 10° NNE
SL-14 R/B 3.7 20:06:06 10° SSW 20:09:55 63° W 20:13:47 10° N
Cosmos 407 Rocket 3.8 20:05:06 10° NNW 20:10:12 53° ENE 20:14:39 13° SE
S3M 4.0 20:04:08 10° S 20:10:20 79° E 20:16:31 10° N
USA 245 3.9 20:07:50 10° SSE 20:13:05 65° ENE 20:17:21 10° N
Cosmos 1455 Rocket 3.5 20:09:55 10° N 20:14:06 44° ENE 20:17:34 14° SSE
MetOp-B 4.2 20:10:23 10° SSE 20:15:44 87° WSW 20:21:08 10° NNW
SPOT 5 3.2 20:12:47 13° SE 20:16:34 44° ENE 20:20:44 10° N
Cosmos 2056 Rocket 4.2 20:12:20 10° SSE 20:17:08 35° E 20:22:01 10° NE
Meteor 2-5 Rocket 4.0 20:12:05 10° SSE 20:17:21 47° E 20:22:39 10° NNE
SPOT 1/Viking Rocket 4.1 20:15:16 10° S 20:20:18 57° W 20:25:23 10° NNW
Cosmos 1271 Rocket 4.3 20:20:41 10° NNE 20:23:54 23° ENE 20:26:12 14° ESE
Cosmos 1025 Rocket 3.3 20:20:19 12° SSE 20:24:05 47° E 20:28:12 10° NNE
Cosmos 1300 3.1 20:21:48 10° NNW 20:25:33 61° W 20:29:16 10° S
USA 32 4.5 20:24:15 14° SSE 20:28:30 44° E 20:33:27 10° NNE
ERS-1 Rocket 3.3 20:24:37 15° SE 20:28:38 54° ENE 20:33:33 10° N
Cosmos 1607 4.3 20:24:22 10° S 20:30:12 43° ESE 20:36:00 10° NE
Cosmos 1140 Rocket 3.5 20:28:36 10° NNW 20:33:51 89° ENE 20:37:57 17° SSE
Cosmos 1953 4.1 20:32:49 10° NNW 20:36:15 29° W 20:39:40 10° SSW
Cosmos 1943 4.2 20:31:17 10° SW 20:36:47 51° WNW 20:42:18 10° NNE
Cosmos 1745 Rocket 4.5 20:34:25 10° NNW 20:40:26 59° W 20:46:26 10° S
CZ-2C R/B 3.9 20:37:47 10° NNE 20:42:20 54° E 20:45:46 16° S
Lacrosse 5 3.3 20:38:49 10° NW 20:43:26 33° NNE 20:48:03 10° E
Cosmos 1975 Rocket 3.1 20:40:17 10° S 20:44:45 84° W 20:49:14 10° N
Helios 1A Rocket 2.8 20:43:49 20° SSE 20:46:37 89° ENE 20:50:42 10° NNW
Ariane Rocket 4.2 20:43:16 10° SSW 20:47:58 37° W 20:52:41 10° NNW
Cosmos 1954 Rocket 4.4 20:45:45 10° NNW 20:50:57 54° ENE 20:54:15 22° SE
Resurs 01 Rocket 3.9 20:49:19 10° SW 20:52:37 20° W 20:55:58 10° NW
Lacrosse 4 Rocket 4.1 20:53:55 10° W 20:57:10 22° NW 21:00:23 10° N
Tiangong 1.3 20:56:20 10° WSW 20:59:25 46° S 21:00:12 36° SE
DELTA 2 R/B (1) 4.3 20:57:07 10° W 21:02:13 37° SSW 21:04:45 24° SSE
Cosmos 2228 4.4 20:59:15 10° NNE 21:02:45 24° ENE 21:04:23 19° ESE
Cosmos 1703 4.3 21:03:35 25° ESE 21:04:31 28° E 21:07:52 10° NNE
Cosmos 1544 Rocket 3.4 21:00:59 10° N 21:05:21 80° E 21:07:38 27° SSE
Terra 1.8 21:02:52 23° SSE 21:05:50 87° WSW 21:10:38 10° NNW
FALCON 9 DEB 4.4 21:03:22 10° W 21:06:28 40° NNW 21:09:36 10° NE
SL-8 R/B 4.4 21:04:09 10° W 21:08:53 55° N 21:13:38 10° ENE
USA 267 3.3 21:03:11 10° NE 21:09:45 85° NW 21:16:18 10° SW
Meteor 1-24 Rocket 3.8 21:06:09 10° SSW 21:11:23 70° WNW 21:16:45 10° N
Cosmos 2315 Rocket 4.5 21:06:14 10° SSW 21:12:31 62° WNW 21:18:47 10° N
Cosmos 1455 2.1 21:09:17 10° N 21:13:06 90° E 21:14:42 33° S
Cosmos 2369 Rocket 4.5 21:11:12 10° WNW 21:14:15 15° W 21:17:19 10° SW
Cosmos 1697 Rocket 4.4 21:12:26 10° N 21:16:53 23° NE 21:20:59 11° E
Cosmos 1371 Rocket 4.3 21:12:21 10° SSW 21:17:31 66° WNW 21:22:47 10° NNE
NOSS 2-1 (C) 4.5 21:13:57 10° NNW 21:18:22 54° NE 21:22:11 22° ESE
Cosmos 1452 Rocket 4.1 21:17:03 28° SSE 21:19:03 39° ESE 21:23:55 10° NE
Spot 2 Rocket 4.3 21:15:27 17° SSW 21:19:06 46° W 21:24:01 10° NNW
RESURS DK-1 4.4 21:17:53 10° N 21:20:52 19° NE 21:23:13 13° E
ARIANE 5 R/B 2.7 21:23:37 29° S 21:25:51 72° WSW 21:30:19 10° NNW
NOSS 2-1 (D) 4.3 21:24:13 10° NNW 21:28:46 64° NE 21:32:17 25° SE
Cosmos 2084 3.0 21:26:53 17° SW 21:29:45 88° SE 21:33:38 10° NE
Lacrosse 5 rocket 1.3 21:26:17 10° NW 21:30:11 70° NE 21:31:47 35° ESE
ASTEX 1 4.1 21:25:47 10° NNE 21:30:27 39° E 21:32:06 30° SE
Cosmos 2074 Rocket 4.0 21:32:16 10° N 21:38:36 90° W 21:42:02 29° S
ATLAS 2AS CENTAUR R/B 2.6 21:34:07 10° NW 21:41:15 89° SW 21:44:52 30° SE
USA 234 3.3 21:38:51 23° SE 21:43:16 86° NE 21:49:52 10° NW
Cosmos 1656 3.7 21:38:58 10° NNW 21:44:25 67° ENE 21:46:54 33° SE
GP-B 3.9 21:40:37 10° NNE 21:44:43 35° E 21:45:39 32° ESE
Cosmos 1833 Rocket 3.2 21:44:37 33° SE 21:46:06 39° ESE 21:51:16 10° NE
Nadezhda 1 Rocket 3.9 21:54:38 31° S 21:57:44 84° E 22:03:51 10° N
Cosmos 2154 Rocket 3.9 21:51:40 10° N 21:57:57 90° E 22:00:52 34° S
Cosmos 1271 Rocket 4.4 21:56:22 10° NNW 21:59:47 27° W 22:01:15 21° SW
Cosmos 2082 Rocket 3.6 21:59:43 21° ESE 22:00:19 21° E 22:04:30 10° NE
Cosmos 1741 Rocket 4.0 21:59:48 10° NNW 22:05:08 80° ENE 22:07:02 41° SSE
Cosmos 1610 Rocket 4.4 21:59:39 10° N 22:05:52 88° W 22:08:41 35° S
COSMOS 2406 3.5 22:25:00 41° SSE 22:26:22 49° ESE 22:31:55 10° NE
Cosmos 968 Rocket 4.4 22:21:30 10° N 22:26:23 40° ENE 22:28:30 28° ESE
Cosmos 1606 Rocket 3.6 22:22:21 10° NNW 22:26:38 65° W 22:27:26 53° SSW
Lacrosse 5 1.8 22:21:41 10° NW 22:26:47 68° SW 22:27:56 51° SSE
H-2A R/B 3.6 22:22:47 10° NNE 22:26:56 57° E 22:27:16 55° ESE
NOSS 2-1 (E) 4.5 22:22:34 10° NW 22:27:24 56° WSW 22:29:25 39° S
Meteor 1-11 4.2 22:30:33 44° SSE 22:32:18 70° E 22:37:53 10° NNE
SL-8 Rocket 4.0 22:30:54 10° N 22:37:10 71° E 22:39:30 40° SSE
Cosmos 1850 Rocket 4.4 22:32:43 10° NNW 22:37:46 51° WSW 22:39:03 41° SSW
Cosmos 1328 4.4 22:37:12 44° WSW 22:37:58 51° WNW 22:41:55 10° N
Cosmos 2369 4.3 22:33:03 10° NNW 22:38:40 52° ENE 22:41:13 30° ESE
Cosmos 2228 4.3 22:36:35 10° NNW 22:40:14 29° W 22:41:10 26° WSW
Cosmos 2218 Rocket 4.2 22:34:24 10° N 22:40:47 65° E 22:43:17 38° SSE
Cosmos 2341 Rocket 4.0 22:36:19 10° N 22:42:42 88° W 22:45:04 42° S
Cosmos 1408 2.5 22:43:33 73° N 22:43:33 73° N 22:46:43 10° N
Cosmos 1825 2.9 22:46:54 40° E 22:46:54 40° E 22:50:10 10° NNE
ALOS 2 2.5 22:46:37 65° S 22:47:16 88° WSW 22:51:41 10° NNW
Cosmos 2366 rocket 4.0 22:44:06 10° N 22:50:26 75° E 22:52:47 41° SSE
SL-8 R/B 4.1 22:47:04 10° WNW 22:51:51 62° NNE 22:56:39 10° E
Cosmos 1726 Rocket 4.1 22:48:55 10° NNW 22:53:00 43° W 22:53:36 41° WSW
Cosmos 967 Rocket 4.4 22:51:24 35° SSW 22:54:24 86° ESE 23:00:54 10° NE
Cosmos 1980 Rocket 2.5 22:51:18 10° NNW 22:56:59 63° ENE 22:59:14 36° SE
RESURS DK-1 2.8 22:55:08 10° NW 22:59:03 48° WSW 22:59:03 48° WSW
Cosmos 1697 Rocket 2.7 22:55:45 10° NNW 23:01:20 64° WSW 23:02:41 48° SSW
Cosmos 1892 3.0 23:06:34 56° W 23:06:38 56° WNW 23:10:20 10° N
ADEOS Rocket 3.4 23:05:35 39° S 23:08:23 74° WSW 23:15:54 10° NNW
Lacrosse 5 rocket 3.6 23:06:13 10° W 23:07:17 14° W 23:07:17 14° W
ERS-2 2.1 23:06:04 10° NNE 23:09:26 77° NNE 23:09:26 77° NNE
In-Cosmos 22 Rocket 4.1 23:08:21 47° SSW 23:10:03 86° W 23:15:39 10° N
USA 276 3.5 23:10:14 35° N 23:10:14 35° N 23:12:50 10° NE
Cosmos 2084 Rocket 4.2 23:08:12 10° NNW 23:11:57 43° NE 23:13:11 33° E
Cosmos 1602 Rocket 3.7 23:15:24 55° ESE 23:15:44 56° E 23:19:59 10° NNE
Cosmos 2058 Rocket 3.7 23:12:05 10° NNW 23:16:15 43° W 23:16:43 41° WSW
Cosmos 2181 Rocket 4.1 23:15:18 39° SSW 23:17:35 68° W 23:23:46 10° N
Cosmos 1959 Rocket 4.5 23:13:21 10° NNW 23:19:26 69° W 23:21:25 43° SSW
Cosmos 1302 Rocket 4.2 23:21:10 41° SW 23:22:51 63° WNW 23:28:02 10° NNE
Cosmos 2278 4.0 23:19:19 10° NNW 23:25:00 63° ENE 23:27:30 33° SE
Cosmos 2322 Rocket 4.1 23:21:18 10° N 23:25:54 24° NE 23:30:28 10° ESE
USA 234 4.2 23:26:11 28° SW 23:26:44 29° SW 23:32:17 10° WNW
Cosmos 1833 Rocket 4.0 23:26:16 16° WSW 23:30:03 34° NW 23:35:10 10° N
ATLAS 2AS CENTAUR R/B 4.2 23:26:50 10° WNW 23:31:04 17° WSW 23:32:16 17° WSW
CZ-2D R/B 4.2 23:34:09 10° ENE 23:36:46 14° E 23:38:50 11° ESE
Geosat 4.3 23:35:56 32° SE 23:38:07 61° ENE 23:43:04 10° NNW
Okean 1-7 Rocket 4.3 23:39:49 39° WSW 23:40:36 43° WNW 23:44:52 10° N
Cosmos 1626 Rocket 4.0 23:42:03 44° WSW 23:42:40 47° WNW 23:46:52 10° N
Cosmos 2082 Rocket 2.5 23:41:32 34° SW 23:43:54 60° WNW 23:49:33 10° NNE
Cosmos 1821 Rocket 3.9 23:42:23 10° N 23:48:42 82° W 23:50:56 43° S
ATLAS 5 CENTAUR R/B 1.9 23:51:04 42° E 23:51:04 42° E 23:54:26 10° NE
Cosmos 1869 4.3 23:47:35 10° NNW 23:50:55 33° W 23:50:55 33° W
Cosmos 1825 Rocket 3.6 23:53:55 56° SE 23:54:29 63° E 23:58:46 10° NNE
